Location: Unspecified
(33.6682°S, 0.0000°E)
Time: 10:07:14
(UTC+00:00)

Tiros 1 despin weight - Pass Details

Date: 24 June 2019
Orbit: 594 x 642 km, 48.2° (Epoch: 18 July)

Event Time Altitude Azimuth Distance (km) Brightness Sun altitude
Rises 08:59:20 0° 324° (NW) 2,879 ? 18.2°
Reaches altitude 10° 09:01:40 10° 329° (NNW) 1,988 ? 18.5°
Maximum altitude 09:06:06 49° 44° (NE) 818 ? 19.2°
Drops below altitude 10° 09:10:37 10° 118° (ESE) 2,036 ? 19.8°
Sets 09:13:02 0° 123° (ESE) 2,956 ? 20.1°
